Time,TemperatureF,DewpointF,PressureIn,WindDirection,WindDirectionDegrees,WindSpeedMPH,WindSpeedGustMPH,Humidity,HourlyPrecipIn,Conditions,Clouds,dailyrainin,SoftwareType,DateUTC
2013-05-24 00:06:00,74.4,48.0,29.39,North,359,0.0,-999.0,39,-99.99,,,0.00,weatherlink.com 1.10,2013-05-24 07:06:00,
2013-05-24 00:21:00,72.8,48.0,29.40,North,359,0.0,-999.0,41,-99.99,,,0.00,weatherlink.com 1.10,2013-05-24 07:21:00,
2013-05-24 00:36:00,72.0,46.0,29.40,North,357,0.0,-999.0,40,-99.99,,,0.00,weatherlink.com 1.10,2013-05-24 07:36:00,
2013-05-24 00:51:00,71.5,47.0,29.40,North,357,0.0,-999.0,42,-99.99,,,0.00,weatherlink.com 1.10,2013-05-24 07:51:00,
2013-05-24 01:06:00,70.8,46.0,29.39,North,357,0.0,-999.0,42,-99.99,,,0.00,weatherlink.com 1.10,2013-05-24 08:06:00,
2013-05-24 01:21:00,70.3,46.0,29.39,North,357,0.0,-999.0,42,-99.99,,,0.00,weatherlink.com 1.10,2013-05-24 08:21:00,
2013-05-24 01:36:00,69.4,47.0,29.39,North,359,0.0,-999.0,45,-99.99,,,0.00,weatherlink.com 1.10,2013-05-24 08:36:00,
2013-05-24 01:51:00,68.4,46.0,29.39,North,359,0.0,-999.0,45,-99.99,,,0.00,weatherlink.com 1.10,2013-05-24 08:51:00,
2013-05-24 02:07:00,68.1,46.0,29.39,North,359,0.0,-999.0,45,-99.99,,,0.00,weatherlink.com 1.10,2013-05-24 09:07:00,
2013-05-24 02:22:00,68.8,45.0,29.39,North,359,0.0,-999.0,42,-99.99,,,0.00,weatherlink.com 1.10,2013-05-24 09:22:00,
2013-05-24 02:37:00,69.4,41.0,29.39,North,357,0.0,-999.0,36,-99.99,,,0.00,weatherlink.com 1.10,2013-05-24 09:37:00,
2013-05-24 02:52:00,68.4,44.0,29.39,North,357,0.0,-999.0,41,-99.99,,,0.00,weatherlink.com 1.10,2013-05-24 09:52:00,
2013-05-24 03:07:00,68.1,41.0,29.39,North,357,0.0,-999.0,38,-99.99,,,0.00,weatherlink.com 1.10,2013-05-24 10:07:00,
2013-05-24 03:22:00,68.3,43.0,29.39,North,359,0.0,-999.0,40,-99.99,,,0.00,weatherlink.com 1.10,2013-05-24 10:22:00,
2013-05-24 03:37:00,67.8,39.0,29.39,North,359,0.0,-999.0,35,-99.99,,,0.00,weatherlink.com 1.10,2013-05-24 10:37:00,
2013-05-24 03:52:00,67.3,42.0,29.40,North,359,0.0,-999.0,40,-99.99,,,0.00,weatherlink.com 1.10,2013-05-24 10:52:00,
2013-05-24 04:07:00,66.3,38.0,29.40,North,359,0.0,-999.0,35,-99.99,,,0.00,weatherlink.com 1.10,2013-05-24 11:07:00,
2013-05-24 04:22:00,66.3,38.0,29.41,North,359,0.0,-999.0,36,-99.99,,,0.00,weatherlink.com 1.10,2013-05-24 11:22:00,
2013-05-24 04:37:00,66.4,35.0,29.41,North,357,0.0,-999.0,31,-99.99,,,0.00,weatherlink.com 1.10,2013-05-24 11:37:00,
2013-05-24 04:52:00,66.9,35.0,29.41,North,357,0.0,-999.0,31,-99.99,,,0.00,weatherlink.com 1.10,2013-05-24 11:52:00,
2013-05-24 05:07:00,66.4,36.0,29.42,North,359,0.0,-999.0,33,-99.99,,,0.00,weatherlink.com 1.10,2013-05-24 12:07:00,
2013-05-24 05:22:00,66.4,36.0,29.43,North,359,0.0,-999.0,33,-99.99,,,0.00,weatherlink.com 1.10,2013-05-24 12:22:00,
2013-05-24 05:37:00,-999.0,-99.9,29.42,North,-999,-999.0,-999.0,-999,-99.99,,,0.00,weatherlink.com 1.10,2013-05-24 12:37:00,
2013-05-24 05:52:00,-999.0,-99.9,29.43,North,-999,-999.0,-999.0,-999,-99.99,,,0.00,weatherlink.com 1.10,2013-05-24 12:52:00,
2013-05-24 06:07:00,-999.0,-99.9,29.44,North,-999,-999.0,-999.0,-999,-99.99,,,0.00,weatherlink.com 1.10,2013-05-24 13:07:00,
2013-05-24 06:22:00,-999.0,-99.9,29.44,North,-999,-999.0,-999.0,-999,-99.99,,,0.00,weatherlink.com 1.10,2013-05-24 13:22:00,
2013-05-24 06:37:00,-999.0,-99.9,29.45,North,-999,-999.0,-999.0,-999,-99.99,,,0.00,weatherlink.com 1.10,2013-05-24 13:37:00,
2013-05-24 06:52:00,-999.0,-99.9,29.46,North,-999,-999.0,-999.0,-999,-99.99,,,0.00,weatherlink.com 1.10,2013-05-24 13:52:00,
2013-05-24 07:07:00,-999.0,-99.9,29.46,North,-999,-999.0,-999.0,-999,-99.99,,,0.00,weatherlink.com 1.10,2013-05-24 14:07:00,
2013-05-24 07:22:00,-999.0,-99.9,29.46,North,-999,-999.0,-999.0,-999,-99.99,,,0.00,weatherlink.com 1.10,2013-05-24 14:22:00,
2013-05-24 07:37:00,-999.0,-99.9,29.47,North,-999,-999.0,-999.0,-999,-99.99,,,0.00,weatherlink.com 1.10,2013-05-24 14:37:00,
2013-05-24 07:52:00,76.5,50.0,29.47,North,357,0.0,-999.0,40,-99.99,,,0.00,weatherlink.com 1.10,2013-05-24 14:52:00,
2013-05-24 08:08:00,77.6,49.0,29.48,North,353,1.0,-999.0,37,-99.99,,,0.00,weatherlink.com 1.10,2013-05-24 15:08:00,
2013-05-24 08:23:00,78.5,49.0,29.48,North,359,2.0,-999.0,35,-99.99,,,0.00,weatherlink.com 1.10,2013-05-24 15:23:00,
2013-05-24 08:38:00,79.9,45.0,29.49,North,359,0.0,-999.0,29,-99.99,,,0.00,weatherlink.com 1.10,2013-05-24 15:38:00,
2013-05-24 08:53:00,81.4,43.0,29.49,North,357,4.0,-999.0,26,-99.99,,,0.00,weatherlink.com 1.10,2013-05-24 15:53:00,
2013-05-24 09:08:00,82.6,40.0,29.49,North,354,0.0,-999.0,22,-99.99,,,0.00,weatherlink.com 1.10,2013-05-24 16:08:00,
2013-05-24 09:23:00,83.8,40.0,29.49,North,359,0.0,-999.0,21,-99.99,,,0.00,weatherlink.com 1.10,2013-05-24 16:23:00,
2013-05-24 09:38:00,85.3,41.0,29.49,North,359,0.0,-999.0,21,-99.99,,,0.00,weatherlink.com 1.10,2013-05-24 16:38:00,
2013-05-24 09:53:00,85.7,40.0,29.49,North,357,0.0,-999.0,20,-99.99,,,0.00,weatherlink.com 1.10,2013-05-24 16:53:00,
2013-05-24 10:08:00,86.5,41.0,29.48,North,356,2.0,-999.0,20,-99.99,,,0.00,weatherlink.com 1.10,2013-05-24 17:08:00,
2013-05-24 10:23:00,86.7,40.0,29.49,North,356,0.0,-999.0,19,-99.99,,,0.00,weatherlink.com 1.10,2013-05-24 17:23:00,
2013-05-24 10:38:00,87.4,39.0,29.49,North,356,1.0,-999.0,18,-99.99,,,0.00,weatherlink.com 1.10,2013-05-24 17:38:00,
2013-05-24 10:53:00,88.6,38.0,29.48,North,357,0.0,-999.0,17,-99.99,,,0.00,weatherlink.com 1.10,2013-05-24 17:53:00,
2013-05-24 11:08:00,89.3,38.0,29.48,North,357,4.0,-999.0,16,-99.99,,,0.00,weatherlink.com 1.10,2013-05-24 18:08:00,
2013-05-24 11:23:00,89.9,40.0,29.48,North,357,3.0,-999.0,17,-99.99,,,0.00,weatherlink.com 1.10,2013-05-24 18:23:00,
2013-05-24 11:38:00,91.0,42.0,29.48,North,357,2.0,-999.0,18,-99.99,,,0.00,weatherlink.com 1.10,2013-05-24 18:38:00,
2013-05-24 11:53:00,91.4,41.0,29.48,North,356,1.0,-999.0,17,-99.99,,,0.00,weatherlink.com 1.10,2013-05-24 18:53:00,
2013-05-24 12:08:00,91.4,39.0,29.48,North,356,1.0,-999.0,16,-99.99,,,0.00,weatherlink.com 1.10,2013-05-24 19:08:00,
2013-05-24 12:23:00,91.6,39.0,29.47,North,356,5.0,-999.0,16,-99.99,,,0.00,weatherlink.com 1.10,2013-05-24 19:23:00,
2013-05-24 12:38:00,92.7,39.0,29.46,North,357,0.0,-999.0,15,-99.99,,,0.00,weatherlink.com 1.10,2013-05-24 19:38:00,
2013-05-24 12:53:00,94.0,40.0,29.46,North,357,0.0,-999.0,15,-99.99,,,0.00,weatherlink.com 1.10,2013-05-24 19:53:00,
2013-05-24 13:08:00,94.5,38.0,29.45,North,357,1.0,-999.0,14,-99.99,,,0.00,weatherlink.com 1.10,2013-05-24 20:08:00,
2013-05-24 13:23:00,94.9,40.0,29.45,North,357,0.0,-999.0,15,-99.99,,,0.00,weatherlink.com 1.10,2013-05-24 20:23:00,
2013-05-24 13:38:00,95.9,41.0,29.44,North,357,7.0,-999.0,15,-99.99,,,0.00,weatherlink.com 1.10,2013-05-24 20:38:00,
2013-05-24 13:53:00,96.1,40.0,29.44,North,357,4.0,-999.0,14,-99.99,,,0.00,weatherlink.com 1.10,2013-05-24 20:53:00,
2013-05-24 14:08:00,96.3,40.0,29.43,North,356,4.0,-999.0,14,-99.99,,,0.00,weatherlink.com 1.10,2013-05-24 21:08:00,
2013-05-24 14:23:00,95.6,35.0,29.43,North,356,11.0,-999.0,12,-99.99,,,0.00,weatherlink.com 1.10,2013-05-24 21:23:00,
2013-05-24 14:38:00,95.6,39.0,29.43,North,356,8.0,-999.0,14,-99.99,,,0.00,weatherlink.com 1.10,2013-05-24 21:38:00,
2013-05-24 14:53:00,96.6,38.0,29.42,North,357,3.0,-999.0,13,-99.99,,,0.00,weatherlink.com 1.10,2013-05-24 21:53:00,
2013-05-24 15:08:00,96.1,36.0,29.41,North,357,2.0,-999.0,12,-99.99,,,0.00,weatherlink.com 1.10,2013-05-24 22:08:00,
2013-05-24 15:23:00,97.1,34.0,29.41,North,357,1.0,-999.0,11,-99.99,,,0.00,weatherlink.com 1.10,2013-05-24 22:23:00,
2013-05-24 15:38:00,97.8,30.0,29.41,North,357,0.0,-999.0,9,-99.99,,,0.00,weatherlink.com 1.10,2013-05-24 22:38:00,
2013-05-24 15:53:00,97.5,30.0,29.41,North,357,10.0,-999.0,9,-99.99,,,0.00,weatherlink.com 1.10,2013-05-24 22:53:00,
2013-05-24 16:08:00,96.6,29.0,29.40,North,357,8.0,-999.0,9,-99.99,,,0.00,weatherlink.com 1.10,2013-05-24 23:08:00,
2013-05-24 16:23:00,96.8,29.0,29.40,North,357,8.0,-999.0,9,-99.99,,,0.00,weatherlink.com 1.10,2013-05-24 23:23:00,
2013-05-24 16:38:00,97.3,30.0,29.39,North,357,0.0,-999.0,9,-99.99,,,0.00,weatherlink.com 1.10,2013-05-24 23:38:00,
2013-05-24 16:53:00,97.8,27.0,29.39,WNW,298,3.0,-999.0,8,-99.99,,,0.00,weatherlink.com 1.10,2013-05-24 23:53:00,
2013-05-24 17:08:00,96.8,29.0,29.38,North,356,3.0,-999.0,9,-99.99,,,0.00,weatherlink.com 1.10,2013-05-25 00:08:00,
2013-05-24 17:23:00,95.9,28.0,29.38,North,356,1.0,-999.0,9,-99.99,,,0.00,weatherlink.com 1.10,2013-05-25 00:23:00,
2013-05-24 17:38:00,96.8,29.0,29.37,North,357,3.0,-999.0,9,-99.99,,,0.00,weatherlink.com 1.10,2013-05-25 00:38:00,
2013-05-24 17:53:00,97.1,27.0,29.37,North,357,2.0,-999.0,8,-99.99,,,0.00,weatherlink.com 1.10,2013-05-25 00:53:00,
2013-05-24 18:08:00,96.8,26.0,29.37,North,357,6.0,-999.0,8,-99.99,,,0.00,weatherlink.com 1.10,2013-05-25 01:08:00,
2013-05-24 18:23:00,95.6,25.0,29.37,North,357,4.0,-999.0,8,-99.99,,,0.00,weatherlink.com 1.10,2013-05-25 01:23:00,
2013-05-24 18:38:00,95.4,25.0,29.37,North,357,0.0,-999.0,8,-99.99,,,0.00,weatherlink.com 1.10,2013-05-25 01:38:00,
2013-05-24 18:53:00,94.9,25.0,29.37,North,357,6.0,-999.0,8,-99.99,,,0.00,weatherlink.com 1.10,2013-05-25 01:53:00,
2013-05-24 19:08:00,93.2,41.0,29.37,North,357,2.0,-999.0,16,-99.99,,,0.00,weatherlink.com 1.10,2013-05-25 02:08:00,
2013-05-24 19:23:00,91.8,40.0,29.38,SW,223,1.0,-999.0,16,-99.99,,,0.00,weatherlink.com 1.10,2013-05-25 02:23:00,
2013-05-24 19:38:00,90.7,39.0,29.38,North,357,6.0,-999.0,16,-99.99,,,0.00,weatherlink.com 1.10,2013-05-25 02:38:00,
2013-05-24 19:53:00,89.3,32.0,29.38,North,357,4.0,-999.0,13,-99.99,,,0.00,weatherlink.com 1.10,2013-05-25 02:53:00,
2013-05-24 20:08:00,88.2,22.0,29.39,North,357,4.0,-999.0,9,-99.99,,,0.00,weatherlink.com 1.10,2013-05-25 03:08:00,
2013-05-24 20:23:00,87.0,24.0,29.39,North,359,5.0,-999.0,10,-99.99,,,0.00,weatherlink.com 1.10,2013-05-25 03:23:00,
2013-05-24 20:39:00,85.7,31.0,29.40,North,357,7.0,-999.0,14,-99.99,,,0.00,weatherlink.com 1.10,2013-05-25 03:39:00,
2013-05-24 20:54:00,84.3,36.0,29.40,North,356,8.0,-999.0,18,-99.99,,,0.00,weatherlink.com 1.10,2013-05-25 03:54:00,
2013-05-24 21:09:00,82.6,41.0,29.41,North,357,2.0,-999.0,23,-99.99,,,0.00,weatherlink.com 1.10,2013-05-25 04:09:00,
2013-05-24 21:24:00,81.2,43.0,29.41,North,359,3.0,-999.0,26,-99.99,,,0.00,weatherlink.com 1.10,2013-05-25 04:24:00,
2013-05-24 21:39:00,80.5,43.0,29.41,North,356,1.0,-999.0,26,-99.99,,,0.00,weatherlink.com 1.10,2013-05-25 04:39:00,
2013-05-24 21:54:00,80.5,39.0,29.42,North,357,5.0,-999.0,23,-99.99,,,0.00,weatherlink.com 1.10,2013-05-25 04:54:00,
2013-05-24 22:09:00,80.9,34.0,29.42,North,359,1.0,-999.0,18,-99.99,,,0.00,weatherlink.com 1.10,2013-05-25 05:09:00,
2013-05-24 22:24:00,80.7,37.0,29.42,North,359,6.0,-999.0,21,-99.99,,,0.00,weatherlink.com 1.10,2013-05-25 05:24:00,
2013-05-24 22:39:00,80.5,42.0,29.42,North,359,4.0,-999.0,25,-99.99,,,0.00,weatherlink.com 1.10,2013-05-25 05:39:00,
2013-05-24 22:54:00,80.1,43.0,29.42,North,359,0.0,-999.0,27,-99.99,,,0.00,weatherlink.com 1.10,2013-05-25 05:54:00,
2013-05-24 23:09:00,79.8,44.0,29.42,North,359,2.0,-999.0,28,-99.99,,,0.00,weatherlink.com 1.10,2013-05-25 06:09:00,
2013-05-24 23:24:00,79.2,42.0,29.43,North,359,2.0,-999.0,27,-99.99,,,0.00,weatherlink.com 1.10,2013-05-25 06:24:00,
2013-05-24 23:39:00,78.5,41.0,29.43,North,359,0.0,-999.0,26,-99.99,,,0.00,weatherlink.com 1.10,2013-05-25 06:39:00,
2013-05-24 23:54:00,78.1,38.0,29.43,North,359,0.0,-999.0,24,-99.99,,,0.00,weatherlink.com 1.10,2013-05-25 06:54:00,